CGMPW LIPZ-UKBB

Flight info

Callsign CGMPW
Flight time 2h 9m
Altitude 18000
Route ROSKA M859 BARPI/N0422F410 DCT DIMLO DCT EMBUT DCT LONLA/K0778F410 M986 SLV
Aircraft PC24/L-SBDGIRWY/LB2

Departure

Time 2026-04-28 16:10
Airport Venice Marco Polo Airport (LIPZ)

Arrival

Time 2026-04-28 18:19
Airport Boryspil International Airport (UKBB)
Time Latitude Longitude Altitude Speed Heading
2026-04-28 16:10 45.43315 12.51261 5253 ft 306 kts 114°
2026-04-28 16:10 45.42392 12.54021 5679 ft 310 kts 116°
2026-04-28 16:10 45.41385 12.59869 6495 ft 314 kts 76°
2026-04-28 16:11 45.43503 12.65285 7331 ft 318 kts 58°
2026-04-28 16:11 45.45517 12.70929 8182 ft 322 kts 64°
2026-04-28 16:12 45.47541 12.76650 9056 ft 326 kts 62°
2026-04-28 16:12 45.48568 12.79536 9715 ft 330 kts 63°
2026-04-28 16:13 45.50644 12.85431 10943 ft 335 kts 63°
2026-04-28 16:13 45.51700 12.88428 11567 ft 340 kts 62°
2026-04-28 16:13 45.53845 12.94521 12837 ft 346 kts 62°
2026-04-28 16:14 45.55659 12.99682 13924 ft 354 kts 62°
2026-04-28 16:14 45.57891 13.06050 15120 ft 363 kts 62°
2026-04-28 16:15 45.60171 13.12571 16370 ft 370 kts 62°
2026-04-28 16:15 45.61325 13.15882 17023 ft 374 kts 62°
2026-04-28 16:15 45.62493 13.19230 17680 ft 379 kts 62°
2026-04-28 16:16 45.64873 13.26071 18926 ft 389 kts 62°
2026-04-28 16:16 45.66066 13.29509 19513 ft 393 kts 62°
2026-04-28 16:17 45.68531 13.36622 20019 ft 400 kts 62°
2026-04-28 16:17 45.69758 13.40174 20011 ft 398 kts 61°
2026-04-28 16:17 45.70984 13.43723 20023 ft 397 kts 62°
2026-04-28 16:17 45.72206 13.47266 20022 ft 396 kts 62°
2026-04-28 16:18 45.73425 13.50802 20025 ft 396 kts 62°
2026-04-28 16:18 45.74640 13.54339 20024 ft 396 kts 62°
2026-04-28 16:18 45.75858 13.57880 20038 ft 396 kts 62°
2026-04-28 16:18 45.77059 13.61384 20036 ft 397 kts 62°
2026-04-28 16:19 45.78277 13.64937 20038 ft 397 kts 62°
2026-04-28 16:19 45.79494 13.68493 20037 ft 398 kts 62°
2026-04-28 16:19 45.80711 13.72059 20039 ft 398 kts 62°
2026-04-28 16:19 45.81932 13.75633 20038 ft 398 kts 62°
2026-04-28 16:20 45.83149 13.79210 20036 ft 398 kts 62°
2026-04-28 16:20 45.84365 13.82776 20035 ft 397 kts 62°
2026-04-28 16:20 45.85568 13.86325 20033 ft 395 kts 62°
2026-04-28 16:20 45.86775 13.89877 20034 ft 396 kts 62°
2026-04-28 16:21 45.87971 13.93399 20038 ft 398 kts 62°
2026-04-28 16:21 45.89180 13.96977 20040 ft 397 kts 62°
2026-04-28 16:21 45.90386 14.00545 20039 ft 396 kts 62°
2026-04-28 16:21 45.91587 14.04105 20038 ft 395 kts 62°
2026-04-28 16:22 45.92785 14.07656 20038 ft 395 kts 62°
2026-04-28 16:22 45.93986 14.11223 20044 ft 396 kts 62°
2026-04-28 16:22 45.95187 14.14794 20046 ft 397 kts 62°
2026-04-28 16:22 45.96388 14.18374 20049 ft 398 kts 62°
2026-04-28 16:23 45.97587 14.21952 20050 ft 397 kts 62°
2026-04-28 16:23 45.98789 14.25536 20052 ft 397 kts 62°
2026-04-28 16:23 45.99984 14.29114 20052 ft 397 kts 62°
2026-04-28 16:23 46.01179 14.32692 20053 ft 397 kts 62°
2026-04-28 16:24 46.02356 14.36225 20055 ft 397 kts 62°
2026-04-28 16:24 46.03549 14.39807 20056 ft 397 kts 62°
2026-04-28 16:24 46.04742 14.43394 20060 ft 396 kts 62°
2026-04-28 16:24 46.05930 14.46968 20062 ft 396 kts 62°
2026-04-28 16:25 46.07114 14.50540 20061 ft 395 kts 62°
2026-04-28 16:25 46.08297 14.54112 20060 ft 394 kts 62°
2026-04-28 16:25 46.09477 14.57678 20059 ft 394 kts 62°
2026-04-28 16:25 46.10654 14.61243 20060 ft 394 kts 62°
2026-04-28 16:26 46.11830 14.64810 20063 ft 394 kts 62°
2026-04-28 16:26 46.13007 14.68383 20062 ft 394 kts 62°
2026-04-28 16:26 46.14182 14.71955 20062 ft 394 kts 62°
2026-04-28 16:26 46.15358 14.75530 20062 ft 394 kts 62°
2026-04-28 16:27 46.16528 14.79105 20059 ft 394 kts 63°
2026-04-28 16:27 46.17700 14.82683 20066 ft 394 kts 63°
2026-04-28 16:27 46.20042 14.89841 20066 ft 394 kts 63°
2026-04-28 16:28 46.21213 14.93434 20073 ft 395 kts 62°
2026-04-28 16:28 46.22370 14.96990 20073 ft 396 kts 62°
2026-04-28 16:28 46.23539 15.00580 20078 ft 394 kts 62°
2026-04-28 16:28 46.24701 15.04154 20076 ft 392 kts 62°
2026-04-28 16:29 46.27023 15.11316 20078 ft 395 kts 62°
2026-04-28 16:29 46.29347 15.18505 20083 ft 394 kts 62°
2026-04-28 16:30 46.30503 15.22094 20090 ft 393 kts 62°
2026-04-28 16:30 46.31661 15.25682 20087 ft 393 kts 62°
2026-04-28 16:30 46.32811 15.29260 20086 ft 392 kts 63°
2026-04-28 16:30 46.33967 15.32856 20086 ft 393 kts 63°
2026-04-28 16:31 46.35118 15.36447 20088 ft 395 kts 62°
2026-04-28 16:31 46.36263 15.40021 20085 ft 397 kts 62°
2026-04-28 16:31 46.37429 15.43658 20091 ft 399 kts 62°
2026-04-28 16:31 46.38597 15.47318 20094 ft 400 kts 62°
2026-04-28 16:32 46.39758 15.50962 20093 ft 397 kts 62°
2026-04-28 16:32 46.42076 15.58240 20092 ft 398 kts 62°
2026-04-28 16:32 46.43236 15.61889 20092 ft 399 kts 62°
2026-04-28 16:33 46.44395 15.65547 20093 ft 399 kts 62°
2026-04-28 16:33 46.45163 15.67972 20093 ft 398 kts 62°
2026-04-28 16:33 46.46705 15.72849 20092 ft 397 kts 62°
2026-04-28 16:33 46.47856 15.76486 20091 ft 397 kts 62°
2026-04-28 16:34 46.49006 15.80136 20095 ft 398 kts 62°
2026-04-28 16:34 46.50160 15.83797 20092 ft 399 kts 62°
2026-04-28 16:34 46.51310 15.87460 20093 ft 398 kts 62°
2026-04-28 16:34 46.52444 15.91068 20094 ft 397 kts 62°
2026-04-28 16:35 46.53588 15.94716 20099 ft 397 kts 62°
2026-04-28 16:35 46.54732 15.98370 20098 ft 396 kts 62°
2026-04-28 16:35 46.55875 16.02022 20094 ft 397 kts 62°
2026-04-28 16:35 46.57016 16.05680 20095 ft 398 kts 63°
2026-04-28 16:36 46.58161 16.09350 20100 ft 399 kts 63°
2026-04-28 16:36 46.59308 16.13035 20101 ft 400 kts 63°
2026-04-28 16:36 46.60451 16.16711 20101 ft 398 kts 63°
2026-04-28 16:36 46.61588 16.20375 20100 ft 397 kts 63°
2026-04-28 16:37 46.62708 16.23988 20098 ft 396 kts 63°
2026-04-28 16:37 46.63842 16.27650 20111 ft 398 kts 63°
2026-04-28 16:37 46.64971 16.31308 20100 ft 394 kts 62°
2026-04-28 16:38 46.67224 16.38607 20100 ft 396 kts 62°
2026-04-28 16:38 46.68351 16.42266 20102 ft 395 kts 63°
2026-04-28 16:38 46.69473 16.45923 20097 ft 395 kts 62°
2026-04-28 16:38 46.70601 16.49588 20098 ft 397 kts 62°
2026-04-28 16:39 46.71727 16.53260 20102 ft 398 kts 62°
2026-04-28 16:39 46.72854 16.56939 20102 ft 397 kts 63°
2026-04-28 16:39 46.73974 16.60607 20101 ft 395 kts 63°
2026-04-28 16:39 46.75092 16.64263 20100 ft 394 kts 63°
2026-04-28 16:40 46.76209 16.67927 20102 ft 396 kts 63°
2026-04-28 16:40 46.77329 16.71598 20105 ft 397 kts 63°
2026-04-28 16:40 46.78448 16.75285 20101 ft 397 kts 63°
2026-04-28 16:40 46.79564 16.78957 20101 ft 394 kts 63°
2026-04-28 16:41 46.80658 16.82571 20101 ft 394 kts 63°
2026-04-28 16:41 46.81770 16.86236 20098 ft 395 kts 63°
2026-04-28 16:41 46.82880 16.89909 20094 ft 395 kts 63°
2026-04-28 16:41 46.83990 16.93588 20092 ft 395 kts 63°
2026-04-28 16:42 46.85099 16.97269 20099 ft 396 kts 63°
2026-04-28 16:42 46.86206 17.00946 20100 ft 396 kts 63°
2026-04-28 16:42 46.87313 17.04630 20097 ft 396 kts 63°
2026-04-28 16:42 46.88421 17.08320 20098 ft 396 kts 63°
2026-04-28 16:43 46.89527 17.12014 20099 ft 397 kts 63°
2026-04-28 16:43 46.90620 17.15663 20100 ft 397 kts 63°
2026-04-28 16:43 46.91725 17.19368 20102 ft 397 kts 63°
2026-04-28 16:43 46.92831 17.23072 20100 ft 397 kts 62°
2026-04-28 16:44 46.93932 17.26767 20094 ft 395 kts 62°
2026-04-28 16:44 46.95027 17.30453 20098 ft 395 kts 62°
2026-04-28 16:44 46.96126 17.34148 20098 ft 395 kts 62°
2026-04-28 16:44 46.97218 17.37835 20099 ft 395 kts 63°
2026-04-28 16:45 46.98314 17.41534 20093 ft 395 kts 62°
2026-04-28 16:45 46.99405 17.45227 20097 ft 395 kts 62°
2026-04-28 16:45 47.00498 17.48924 20105 ft 395 kts 62°
2026-04-28 16:45 47.01588 17.52629 20104 ft 396 kts 62°
2026-04-28 16:46 47.02680 17.56334 20108 ft 395 kts 62°
2026-04-28 16:46 47.03768 17.60040 20106 ft 395 kts 63°
2026-04-28 16:46 47.04842 17.63697 20103 ft 395 kts 63°
2026-04-28 16:46 47.05928 17.67404 20123 ft 395 kts 63°
2026-04-28 16:47 47.07013 17.71113 20102 ft 396 kts 63°
2026-04-28 16:47 47.08098 17.74828 20102 ft 397 kts 62°
2026-04-28 16:47 47.09198 17.78600 20104 ft 397 kts 63°
2026-04-28 16:47 47.10276 17.82302 20104 ft 397 kts 63°
2026-04-28 16:48 47.11355 17.86012 20106 ft 397 kts 63°
2026-04-28 16:48 47.12438 17.89739 20106 ft 398 kts 63°
2026-04-28 16:48 47.13517 17.93465 20106 ft 398 kts 63°
2026-04-28 16:48 47.14605 17.97223 20107 ft 398 kts 63°
2026-04-28 16:49 47.15688 18.00972 20114 ft 398 kts 63°
2026-04-28 16:49 47.16766 18.04707 20107 ft 396 kts 63°
2026-04-28 16:49 47.17830 18.08400 20105 ft 395 kts 63°
2026-04-28 16:49 47.18907 18.12145 20106 ft 396 kts 63°
2026-04-28 16:50 47.19976 18.15859 20125 ft 397 kts 63°
2026-04-28 16:50 47.21046 18.19600 20110 ft 394 kts 63°
2026-04-28 16:50 47.22097 18.23269 20108 ft 394 kts 63°
2026-04-28 16:50 47.23163 18.26990 20109 ft 396 kts 63°
2026-04-28 16:51 47.24234 18.30739 20108 ft 396 kts 63°
2026-04-28 16:51 47.25295 18.34469 20113 ft 394 kts 63°
2026-04-28 16:51 47.26352 18.38184 20112 ft 393 kts 63°
2026-04-28 16:51 47.27420 18.41934 20112 ft 394 kts 63°
2026-04-28 16:52 47.28462 18.45613 20109 ft 396 kts 63°
2026-04-28 16:52 47.29524 18.49357 20111 ft 397 kts 63°
2026-04-28 16:52 47.30591 18.53135 20111 ft 395 kts 63°
2026-04-28 16:52 47.31639 18.56842 20115 ft 394 kts 63°
2026-04-28 16:53 47.32703 18.60618 20115 ft 394 kts 63°
2026-04-28 16:53 47.33639 18.63942 20114 ft 395 kts 63°
2026-04-28 16:53 47.34716 18.67766 20114 ft 396 kts 63°
2026-04-28 16:53 47.35770 18.71525 20117 ft 397 kts 63°
2026-04-28 16:54 47.36822 18.75278 20118 ft 395 kts 63°
2026-04-28 16:54 47.37855 18.78976 20114 ft 394 kts 63°
2026-04-28 16:54 47.38900 18.82707 20110 ft 395 kts 63°
2026-04-28 16:54 47.39610 18.85250 20109 ft 396 kts 63°
2026-04-28 16:55 47.40999 18.90238 20105 ft 396 kts 63°
2026-04-28 16:55 47.42053 18.93958 20102 ft 393 kts 62°
2026-04-28 16:55 47.43163 18.97672 20100 ft 395 kts 62°
2026-04-28 16:55 47.44266 19.01403 20099 ft 396 kts 62°
2026-04-28 16:56 47.45342 19.05146 20097 ft 395 kts 63°
2026-04-28 16:56 47.46414 19.08869 20099 ft 393 kts 62°
2026-04-28 16:56 47.47496 19.12601 20092 ft 395 kts 62°
2026-04-28 16:56 47.48568 19.16297 20092 ft 396 kts 63°
2026-04-28 16:57 47.49652 19.20048 20093 ft 397 kts 63°
2026-04-28 16:57 47.50732 19.23806 20094 ft 396 kts 63°
2026-04-28 16:57 47.51809 19.27542 20093 ft 394 kts 63°
2026-04-28 16:57 47.52881 19.31276 20092 ft 393 kts 63°
2026-04-28 16:58 47.53955 19.35008 20093 ft 395 kts 63°
2026-04-28 16:58 47.55027 19.38754 20097 ft 396 kts 63°
2026-04-28 16:58 47.56106 19.42522 20102 ft 397 kts 63°
2026-04-28 16:58 47.57179 19.46282 20104 ft 395 kts 63°
2026-04-28 16:59 47.58249 19.50034 20105 ft 394 kts 63°
2026-04-28 16:59 47.59313 19.53771 20106 ft 393 kts 63°
2026-04-28 16:59 47.60378 19.57513 20108 ft 395 kts 63°
2026-04-28 16:59 47.61434 19.61229 20111 ft 396 kts 63°
2026-04-28 17:00 47.62491 19.64970 20124 ft 393 kts 63°
2026-04-28 17:00 47.63554 19.68718 20121 ft 393 kts 63°
2026-04-28 17:00 47.64613 19.72468 20117 ft 393 kts 63°
2026-04-28 17:00 47.65314 19.74952 20118 ft 393 kts 63°
2026-04-28 17:01 47.66714 19.79920 20118 ft 393 kts 63°
2026-04-28 17:01 47.67768 19.83667 20119 ft 393 kts 63°
2026-04-28 17:01 47.68821 19.87414 20124 ft 393 kts 63°
2026-04-28 17:01 47.69518 19.89904 20120 ft 393 kts 63°
2026-04-28 17:02 47.70571 19.93657 20120 ft 393 kts 63°
2026-04-28 17:02 47.71619 19.97410 20120 ft 393 kts 63°
2026-04-28 17:02 47.72669 20.01165 20120 ft 393 kts 63°
2026-04-28 17:02 47.73717 20.04928 20120 ft 393 kts 63°
2026-04-28 17:03 47.75818 20.12481 20119 ft 397 kts 63°
2026-04-28 17:03 47.76869 20.16271 20117 ft 396 kts 63°
2026-04-28 17:03 47.77917 20.20054 20111 ft 395 kts 63°
2026-04-28 17:04 47.79999 20.27582 20119 ft 393 kts 63°
2026-04-28 17:04 47.81022 20.31298 20112 ft 394 kts 63°
2026-04-28 17:05 47.83103 20.38866 20120 ft 395 kts 63°
2026-04-28 17:05 47.84141 20.42650 20127 ft 394 kts 63°
2026-04-28 17:05 47.85179 20.46433 20120 ft 394 kts 63°
2026-04-28 17:06 47.87242 20.53985 20115 ft 394 kts 63°
2026-04-28 17:06 47.88273 20.57764 20128 ft 394 kts 64°
2026-04-28 17:06 47.90322 20.65297 20129 ft 392 kts 64°
2026-04-28 17:07 47.91347 20.69072 20132 ft 394 kts 64°
2026-04-28 17:07 47.92377 20.72874 20132 ft 394 kts 64°
2026-04-28 17:07 47.93399 20.76655 20132 ft 393 kts 64°
2026-04-28 17:07 47.94419 20.80436 20132 ft 392 kts 64°
2026-04-28 17:08 47.95434 20.84199 20131 ft 390 kts 64°
2026-04-28 17:08 47.96433 20.87911 20133 ft 390 kts 64°
2026-04-28 17:08 47.97444 20.91669 20133 ft 391 kts 64°
2026-04-28 17:08 47.98457 20.95447 20134 ft 392 kts 64°
2026-04-28 17:09 47.99472 20.99230 20134 ft 393 kts 64°
2026-04-28 17:09 48.00484 21.03021 20134 ft 393 kts 64°
2026-04-28 17:09 48.01495 21.06807 20139 ft 392 kts 64°
2026-04-28 17:09 48.02504 21.10590 20137 ft 391 kts 64°
2026-04-28 17:10 48.03511 21.14375 20139 ft 390 kts 64°
2026-04-28 17:10 48.04513 21.18143 20138 ft 390 kts 64°
2026-04-28 17:10 48.05511 21.21912 20137 ft 391 kts 64°
2026-04-28 17:10 48.06514 21.25691 20141 ft 392 kts 64°
2026-04-28 17:11 48.07518 21.29492 20142 ft 393 kts 64°
2026-04-28 17:11 48.08524 21.33301 20144 ft 393 kts 64°
2026-04-28 17:11 48.09511 21.37050 20143 ft 392 kts 64°
2026-04-28 17:11 48.10507 21.40834 20141 ft 390 kts 64°
2026-04-28 17:12 48.11501 21.44616 20140 ft 391 kts 64°
2026-04-28 17:12 48.12496 21.48409 20143 ft 392 kts 64°
2026-04-28 17:12 48.13492 21.52211 20145 ft 393 kts 64°
2026-04-28 17:12 48.14491 21.56038 20152 ft 394 kts 64°
2026-04-28 17:13 48.15488 21.59852 20145 ft 393 kts 65°
2026-04-28 17:13 48.16477 21.63657 20144 ft 391 kts 64°
2026-04-28 17:13 48.17467 21.67455 20145 ft 391 kts 64°
2026-04-28 17:14 48.20469 21.79040 20145 ft 392 kts 65°
2026-04-28 17:14 48.21456 21.82860 20145 ft 392 kts 65°
2026-04-28 17:14 48.22441 21.86672 20146 ft 392 kts 65°
2026-04-28 17:15 48.23425 21.90501 20155 ft 392 kts 65°
2026-04-28 17:15 48.24408 21.94320 20148 ft 393 kts 65°
2026-04-28 17:15 48.25377 21.98103 20148 ft 393 kts 65°
2026-04-28 17:15 48.26359 22.01937 20149 ft 394 kts 65°
2026-04-28 17:16 48.27341 22.05776 20154 ft 394 kts 65°
2026-04-28 17:16 48.28324 22.09626 20146 ft 394 kts 65°
2026-04-28 17:16 48.29306 22.13472 20147 ft 395 kts 65°
2026-04-28 17:16 48.30286 22.17330 20144 ft 395 kts 65°
2026-04-28 17:17 48.31266 22.21180 20144 ft 395 kts 65°
2026-04-28 17:17 48.32244 22.25045 20147 ft 395 kts 65°
2026-04-28 17:17 48.33223 22.28906 20147 ft 395 kts 65°
2026-04-28 17:17 48.34218 22.32756 20142 ft 393 kts 63°
2026-04-28 17:18 48.35323 22.36449 20141 ft 393 kts 61°
2026-04-28 17:18 48.36445 22.40202 20136 ft 394 kts 62°
2026-04-28 17:18 48.37551 22.43975 20142 ft 394 kts 62°
2026-04-28 17:18 48.38658 22.47748 20143 ft 394 kts 62°
2026-04-28 17:19 48.39770 22.51517 20146 ft 394 kts 62°
2026-04-28 17:19 48.40877 22.55280 20144 ft 393 kts 62°
2026-04-28 17:19 48.41981 22.59036 20142 ft 392 kts 62°
2026-04-28 17:19 48.43078 22.62788 20142 ft 391 kts 62°
2026-04-28 17:20 48.44177 22.66539 20141 ft 392 kts 62°
2026-04-28 17:20 48.44907 22.69035 20140 ft 393 kts 62°
2026-04-28 17:20 48.46383 22.74094 20145 ft 394 kts 62°
2026-04-28 17:20 48.47485 22.77881 20144 ft 394 kts 62°
2026-04-28 17:21 48.48584 22.81663 20150 ft 393 kts 62°
2026-04-28 17:21 48.49665 22.85383 20145 ft 392 kts 62°
2026-04-28 17:21 48.50757 22.89150 20146 ft 391 kts 62°
2026-04-28 17:22 48.52930 22.96669 20144 ft 391 kts 62°
2026-04-28 17:22 48.54020 23.00434 20167 ft 392 kts 62°
2026-04-28 17:22 48.55110 23.04224 20153 ft 393 kts 62°
2026-04-28 17:23 48.57293 23.11816 20149 ft 393 kts 62°
2026-04-28 17:23 48.58375 23.15597 20150 ft 392 kts 62°
2026-04-28 17:23 48.59460 23.19383 20155 ft 394 kts 62°
2026-04-28 17:23 48.60546 23.23183 20160 ft 393 kts 62°
2026-04-28 17:24 48.61613 23.26921 20157 ft 392 kts 62°
2026-04-28 17:24 48.62694 23.30715 20157 ft 392 kts 62°
2026-04-28 17:24 48.63774 23.34513 20155 ft 393 kts 62°
2026-04-28 17:24 48.64855 23.38314 20167 ft 394 kts 62°
2026-04-28 17:25 48.65938 23.42132 20162 ft 395 kts 62°
2026-04-28 17:25 48.68097 23.49767 20168 ft 394 kts 62°
2026-04-28 17:25 48.69173 23.53581 20162 ft 393 kts 62°
2026-04-28 17:26 48.70245 23.57382 20168 ft 392 kts 63°
2026-04-28 17:26 48.71313 23.61184 20168 ft 392 kts 62°
2026-04-28 17:26 48.72371 23.64943 20168 ft 393 kts 63°
2026-04-28 17:26 48.73443 23.68767 20167 ft 394 kts 63°
2026-04-28 17:27 48.74515 23.72599 20165 ft 395 kts 63°
2026-04-28 17:27 48.75585 23.76418 20168 ft 395 kts 63°
2026-04-28 17:27 48.76666 23.80297 20172 ft 395 kts 63°
2026-04-28 17:27 48.77728 23.84115 20169 ft 394 kts 63°
2026-04-28 17:28 48.78789 23.87932 20167 ft 393 kts 63°
2026-04-28 17:28 48.80914 23.95578 20177 ft 395 kts 62°
2026-04-28 17:28 48.81975 23.99414 20177 ft 396 kts 62°
2026-04-28 17:29 48.83049 24.03303 20180 ft 395 kts 62°
2026-04-28 17:29 48.84101 24.07112 20179 ft 394 kts 62°
2026-04-28 17:29 48.85169 24.10993 20176 ft 393 kts 62°
2026-04-28 17:30 48.87263 24.18605 20180 ft 394 kts 63°
2026-04-28 17:30 48.89377 24.26325 20182 ft 396 kts 63°
2026-04-28 17:30 48.90430 24.30182 20181 ft 395 kts 63°
2026-04-28 17:31 48.91480 24.34031 20182 ft 394 kts 63°
2026-04-28 17:31 48.93580 24.41746 20197 ft 393 kts 63°
2026-04-28 17:32 48.95683 24.49497 20183 ft 397 kts 63°
2026-04-28 17:32 48.96727 24.53359 20184 ft 397 kts 63°
2026-04-28 17:32 48.97782 24.57266 20184 ft 397 kts 63°
2026-04-28 17:32 48.98832 24.61156 20183 ft 397 kts 63°
2026-04-28 17:33 48.99870 24.65010 20181 ft 396 kts 63°
2026-04-28 17:33 49.00913 24.68896 20178 ft 396 kts 63°
2026-04-28 17:33 49.01958 24.72789 20181 ft 396 kts 63°
2026-04-28 17:33 49.02303 24.74075 20180 ft 396 kts 63°
2026-04-28 17:34 49.04038 24.80558 20180 ft 396 kts 63°
2026-04-28 17:34 49.05068 24.84418 20182 ft 396 kts 63°
2026-04-28 17:34 49.06103 24.88297 20181 ft 396 kts 63°
2026-04-28 17:34 49.07137 24.92188 20176 ft 397 kts 62°
2026-04-28 17:35 49.08178 24.96102 20174 ft 399 kts 62°
2026-04-28 17:35 49.09223 25.00046 20179 ft 399 kts 62°
2026-04-28 17:35 49.10267 25.03985 20175 ft 400 kts 63°
2026-04-28 17:35 49.11295 25.07882 20177 ft 399 kts 63°
2026-04-28 17:36 49.12337 25.11825 20176 ft 399 kts 63°
2026-04-28 17:36 49.13372 25.15759 20175 ft 399 kts 63°
2026-04-28 17:36 49.14400 25.19668 20173 ft 399 kts 63°
2026-04-28 17:36 49.15432 25.23601 20172 ft 399 kts 63°
2026-04-28 17:37 49.16471 25.27561 20173 ft 398 kts 63°
2026-04-28 17:37 49.17500 25.31498 20174 ft 398 kts 63°
2026-04-28 17:37 49.18526 25.35428 20173 ft 398 kts 63°
2026-04-28 17:37 49.19545 25.39336 20198 ft 398 kts 63°
2026-04-28 17:38 49.20580 25.43312 20175 ft 399 kts 63°
2026-04-28 17:38 49.21596 25.47221 20172 ft 399 kts 63°
2026-04-28 17:38 49.22615 25.51155 20172 ft 399 kts 63°
2026-04-28 17:38 49.23639 25.55107 20172 ft 399 kts 63°
2026-04-28 17:39 49.24657 25.59048 20172 ft 399 kts 63°
2026-04-28 17:39 49.25581 25.62624 20172 ft 399 kts 63°
2026-04-28 17:39 49.27618 25.70538 20172 ft 399 kts 63°
2026-04-28 17:40 49.28632 25.74492 20173 ft 399 kts 63°
2026-04-28 17:40 49.29635 25.78403 20173 ft 399 kts 63°
2026-04-28 17:40 49.30648 25.82368 20173 ft 399 kts 63°
2026-04-28 17:40 49.31661 25.86331 20173 ft 399 kts 63°
2026-04-28 17:41 49.32673 25.90302 20172 ft 400 kts 63°
2026-04-28 17:41 49.33343 25.92934 20173 ft 400 kts 63°
2026-04-28 17:41 49.34358 25.96924 20173 ft 400 kts 63°
2026-04-28 17:41 49.35367 26.00904 20173 ft 400 kts 63°
2026-04-28 17:42 49.36378 26.04895 20173 ft 400 kts 63°
2026-04-28 17:42 49.37384 26.08879 20173 ft 400 kts 63°
2026-04-28 17:42 49.38394 26.12871 20172 ft 401 kts 63°
2026-04-28 17:42 49.39397 26.16857 20172 ft 401 kts 63°
2026-04-28 17:43 49.40400 26.20845 20171 ft 401 kts 63°
2026-04-28 17:43 49.41389 26.24791 20169 ft 401 kts 63°
2026-04-28 17:43 49.42393 26.28787 20169 ft 401 kts 63°
2026-04-28 17:43 49.43392 26.32783 20168 ft 401 kts 63°
2026-04-28 17:44 49.44391 26.36785 20171 ft 401 kts 64°
2026-04-28 17:44 49.45391 26.40794 20170 ft 402 kts 64°
2026-04-28 17:44 49.46387 26.44802 20170 ft 402 kts 64°
2026-04-28 17:44 49.47386 26.48818 20170 ft 402 kts 64°
2026-04-28 17:45 49.48381 26.52835 20165 ft 402 kts 64°
2026-04-28 17:45 49.49376 26.56855 20164 ft 402 kts 64°
2026-04-28 17:45 49.50369 26.60874 20165 ft 402 kts 64°
2026-04-28 17:45 49.51350 26.64851 20164 ft 402 kts 64°
2026-04-28 17:46 49.52341 26.68879 20167 ft 402 kts 64°
2026-04-28 17:46 49.53329 26.72902 20166 ft 402 kts 64°
2026-04-28 17:46 49.54325 26.76951 20165 ft 407 kts 64°
2026-04-28 17:46 49.55323 26.81031 20169 ft 407 kts 64°
2026-04-28 17:47 49.56323 26.85129 20168 ft 410 kts 64°
2026-04-28 17:47 49.57328 26.89252 20168 ft 413 kts 64°
2026-04-28 17:47 49.58335 26.93385 20166 ft 411 kts 64°
2026-04-28 17:47 49.58996 26.96112 20163 ft 409 kts 64°
2026-04-28 17:48 49.60338 27.01630 20165 ft 412 kts 64°
2026-04-28 17:48 49.61327 27.05721 20159 ft 413 kts 65°
2026-04-28 17:48 49.62335 27.09896 20159 ft 412 kts 65°
2026-04-28 17:48 49.63332 27.14035 20161 ft 411 kts 65°
2026-04-28 17:49 49.64330 27.18177 20159 ft 411 kts 65°
2026-04-28 17:49 49.65325 27.22316 20069 ft 412 kts 65°
2026-04-28 17:49 49.66316 27.26449 20047 ft 409 kts 65°
2026-04-28 17:49 49.67302 27.30574 20054 ft 411 kts 65°
2026-04-28 17:50 49.68326 27.34709 20049 ft 409 kts 61°
2026-04-28 17:50 49.69641 27.38505 20055 ft 404 kts 52°
2026-04-28 17:50 49.71151 27.42156 20049 ft 403 kts 51°
2026-04-28 17:50 49.72609 27.45876 20049 ft 406 kts 55°
2026-04-28 17:51 49.73899 27.49788 20048 ft 409 kts 58°
2026-04-28 17:51 49.75178 27.53706 20047 ft 408 kts 56°
2026-04-28 17:51 49.76553 27.57548 20045 ft 407 kts 54°
2026-04-28 17:51 49.77929 27.61382 20047 ft 408 kts 56°
2026-04-28 17:52 49.79257 27.65276 20045 ft 409 kts 57°
2026-04-28 17:52 49.80582 27.69161 20043 ft 408 kts 57°
2026-04-28 17:52 49.83259 27.76839 20040 ft 408 kts 57°
2026-04-28 17:53 49.84595 27.80715 20037 ft 408 kts 56°
2026-04-28 17:53 49.85930 27.84599 20036 ft 408 kts 56°
2026-04-28 17:53 49.87268 27.88483 20035 ft 408 kts 56°
2026-04-28 17:53 49.88603 27.92372 20035 ft 408 kts 57°
2026-04-28 17:54 49.89743 27.96433 20038 ft 414 kts 65°
2026-04-28 17:54 49.90689 28.00672 20038 ft 416 kts 67°
2026-04-28 17:54 49.91677 28.04899 20027 ft 415 kts 63°
2026-04-28 17:54 49.92811 28.08996 20025 ft 412 kts 61°
2026-04-28 17:55 49.93930 28.13083 20027 ft 412 kts 63°
2026-04-28 17:55 49.94973 28.17246 20026 ft 415 kts 64°
2026-04-28 17:55 49.96020 28.21429 20024 ft 415 kts 63°
2026-04-28 17:55 49.97103 28.25578 20021 ft 413 kts 63°
2026-04-28 17:56 49.98180 28.29715 20021 ft 412 kts 63°
2026-04-28 17:56 49.99235 28.33853 20020 ft 413 kts 64°
2026-04-28 17:56 50.00296 28.38013 20020 ft 414 kts 63°
2026-04-28 17:56 50.01348 28.42121 20020 ft 415 kts 63°
2026-04-28 17:57 50.02412 28.46292 20019 ft 415 kts 64°
2026-04-28 17:57 50.03474 28.50466 20018 ft 414 kts 64°
2026-04-28 17:57 50.04534 28.54633 20019 ft 413 kts 64°
2026-04-28 17:57 50.05588 28.58792 20016 ft 413 kts 64°
2026-04-28 17:58 50.06644 28.62953 20020 ft 414 kts 64°
2026-04-28 17:58 50.07701 28.67142 20020 ft 415 kts 64°
2026-04-28 17:58 50.08757 28.71326 20020 ft 416 kts 64°
2026-04-28 17:58 50.09812 28.75523 20033 ft 417 kts 64°
2026-04-28 17:59 50.10874 28.79739 20034 ft 417 kts 63°
2026-04-28 17:59 50.11928 28.83947 20026 ft 416 kts 64°
2026-04-28 17:59 50.12964 28.88083 20024 ft 415 kts 63°
2026-04-28 17:59 50.14016 28.92290 20023 ft 416 kts 64°
2026-04-28 18:00 50.15066 28.96496 20022 ft 417 kts 64°
2026-04-28 18:00 50.16117 29.00724 20022 ft 418 kts 64°
2026-04-28 18:00 50.17168 29.04955 20021 ft 418 kts 64°
2026-04-28 18:00 50.18216 29.09177 20017 ft 416 kts 64°
2026-04-28 18:01 50.19258 29.13393 20016 ft 415 kts 64°
2026-04-28 18:01 50.20298 29.17593 20013 ft 415 kts 64°
2026-04-28 18:01 50.21322 29.21749 20011 ft 415 kts 64°
2026-04-28 18:01 50.22362 29.25968 20025 ft 417 kts 64°
2026-04-28 18:02 50.23403 29.30210 20025 ft 420 kts 64°
2026-04-28 18:02 50.24449 29.34474 20022 ft 419 kts 64°
2026-04-28 18:02 50.25487 29.38724 20015 ft 418 kts 64°
2026-04-28 18:02 50.26524 29.42965 20013 ft 417 kts 64°
2026-04-28 18:03 50.27559 29.47206 20011 ft 417 kts 64°
2026-04-28 18:03 50.28592 29.51453 20010 ft 419 kts 64°
2026-04-28 18:03 50.29629 29.55718 20013 ft 420 kts 64°
2026-04-28 18:03 50.30666 29.60006 19741 ft 421 kts 64°
2026-04-28 18:04 50.31691 29.64253 19206 ft 414 kts 64°
2026-04-28 18:04 50.32702 29.68442 18663 ft 409 kts 64°
2026-04-28 18:04 50.33705 29.72588 18093 ft 405 kts 64°
2026-04-28 18:04 50.34690 29.76691 17564 ft 400 kts 64°
2026-04-28 18:05 50.35662 29.80741 17040 ft 392 kts 64°
2026-04-28 18:05 50.36293 29.83374 16700 ft 389 kts 65°
2026-04-28 18:05 50.37550 29.88618 16038 ft 384 kts 65°
2026-04-28 18:05 50.38481 29.92522 15543 ft 380 kts 65°
2026-04-28 18:06 50.39400 29.96377 15043 ft 375 kts 66°
2026-04-28 18:06 50.40305 30.00179 14551 ft 370 kts 66°
2026-04-28 18:06 50.41196 30.03935 14075 ft 365 kts 66°
2026-04-28 18:06 50.42079 30.07652 13570 ft 361 kts 66°
2026-04-28 18:07 50.42945 30.11318 13096 ft 355 kts 67°
2026-04-28 18:07 50.43799 30.14927 12632 ft 350 kts 67°
2026-04-28 18:07 50.44629 30.18447 12181 ft 346 kts 67°
2026-04-28 18:07 50.45459 30.21970 11731 ft 342 kts 67°
2026-04-28 18:08 50.46280 30.25457 11292 ft 338 kts 68°
2026-04-28 18:08 50.47085 30.28894 10843 ft 333 kts 68°
2026-04-28 18:08 50.47880 30.32286 10401 ft 329 kts 68°
2026-04-28 18:08 50.48668 30.35646 9969 ft 326 kts 68°
2026-04-28 18:09 50.49446 30.38976 9522 ft 323 kts 68°
2026-04-28 18:09 50.50217 30.42283 9093 ft 322 kts 68°
2026-04-28 18:09 50.50987 30.45584 8670 ft 321 kts 68°
2026-04-28 18:09 50.51754 30.48889 8243 ft 320 kts 68°
2026-04-28 18:10 50.52503 30.52122 7826 ft 318 kts 68°
2026-04-28 18:10 50.53263 30.55390 7401 ft 317 kts 68°
2026-04-28 18:10 50.54017 30.58638 6986 ft 314 kts 68°
2026-04-28 18:10 50.54735 30.61761 6579 ft 292 kts 68°
2026-04-28 18:11 50.55404 30.64654 6186 ft 272 kts 67°
2026-04-28 18:11 50.56030 30.67360 5836 ft 255 kts 67°
2026-04-28 18:11 50.56620 30.69913 5511 ft 242 kts 67°
2026-04-28 18:11 50.57184 30.72360 5199 ft 237 kts 67°
2026-04-28 18:12 50.57747 30.74806 4890 ft 237 kts 67°
2026-04-28 18:12 50.58309 30.77249 4560 ft 237 kts 67°
2026-04-28 18:12 50.58868 30.79689 4261 ft 236 kts 67°
2026-04-28 18:12 50.59423 30.82119 3949 ft 236 kts 67°
2026-04-28 18:13 50.59979 30.84548 3598 ft 236 kts 67°
2026-04-28 18:13 50.60129 30.87101 3196 ft 241 kts 102°
2026-04-28 18:13 50.59378 30.89350 2972 ft 227 kts 127°
2026-04-28 18:13 50.58263 30.90958 2935 ft 214 kts 149°
2026-04-28 18:14 50.56898 30.91843 2943 ft 209 kts 171°
2026-04-28 18:14 50.55533 30.92019 2920 ft 187 kts 183°
2026-04-28 18:14 50.54294 30.92040 2919 ft 169 kts 188°
2026-04-28 18:14 50.53157 30.91920 2922 ft 161 kts 189°
2026-04-28 18:15 50.52029 30.91821 2931 ft 164 kts 188°
2026-04-28 18:15 50.50886 30.91736 2941 ft 165 kts 188°
2026-04-28 18:15 50.49736 30.91651 2941 ft 166 kts 188°
2026-04-28 18:15 50.48580 30.91563 2945 ft 166 kts 187°
2026-04-28 18:16 50.47429 30.91480 2741 ft 163 kts 187°
2026-04-28 18:16 50.46303 30.91402 2514 ft 162 kts 188°
2026-04-28 18:16 50.45208 30.91323 2285 ft 152 kts 188°
2026-04-28 18:16 50.44183 30.91245 2080 ft 148 kts 189°
2026-04-28 18:17 50.43159 30.91170 1885 ft 147 kts 189°
2026-04-28 18:17 50.42136 30.91093 1685 ft 147 kts 188°
2026-04-28 18:17 50.41120 30.91017 1482 ft 145 kts 188°
2026-04-28 18:17 50.40110 30.90946 1281 ft 146 kts 188°
2026-04-28 18:18 50.39094 30.90868 1068 ft 147 kts 188°
2026-04-28 18:18 50.38107 30.90799 899 ft 132 kts 187°
2026-04-28 18:18 50.37230 30.90750 648 ft 121 kts 187°
2026-04-28 18:18 50.36679 30.90709 552 ft 122 kts 189°
2026-04-28 18:19 50.35575 30.90616 423 ft 114 kts 187°
2026-04-28 18:19 50.34971 30.90570 425 ft 57 kts 183°
2026-04-28 18:19 50.34645 30.90540 424 ft 44 kts 182°
2026-04-28 18:19 50.34347 30.90509 422 ft 41 kts 184°
2026-04-28 18:20 50.34130 30.90393 427 ft 11 kts 210°
2026-04-28 18:20 50.34126 30.90389 429 ft 0 kts 209°
2026-04-28 18:20 50.34040 30.90302 429 ft 29 kts 214°
2026-04-28 18:20 50.33873 30.90163 430 ft 27 kts 189°
2026-04-28 18:21 50.33696 30.90148 425 ft 25 kts 183°
2026-04-28 18:21 50.33531 30.90134 427 ft 23 kts 183°
2026-04-28 18:21 50.33486 30.90064 431 ft 26 kts 278°
2026-04-28 18:21 50.33500 30.89788 431 ft 24 kts 271°
2026-04-28 18:22 50.33500 30.89746 431 ft 0 kts 271°
2026-04-28 18:22 50.33503 30.89695 431 ft 17 kts 275°
2026-04-28 18:22 50.33570 30.89654 421 ft 6 kts 13°
2026-04-28 18:23 50.33576 30.89656 424 ft 0 kts 10°